User: anonymous   Login
Location: Gollag?dem
(16.8053°N, 80.8024°E)
Time: 05:00:34
(UTC+00:00)
Language:

Cosmos 1023 Rocket - Orbit

View from above orbital plane
View from above orbital plane
View from above satellite
View from above satellite

Ground track
Ground track

The orbit data is extracted from the following two-line orbital elements,

1 10962U 78063B   20304.18780589 +.00000138 +00000-0 +50535-4 0  9991
2 10962 074.0779 106.1994 0024442 050.1383 310.1918 14.41210157223028
Epoch (UTC): 30 October 2020 04:30:26
Eccentricity: 0.0024442
inclination: 74.0779°
perigee height: 737 km
apogee height: 772 km
right ascension of ascending node: 106.1994°
argument of perigee: 50.1383°
revolutions per day: 14.41210157
mean anomaly at epoch: 310.1918°
orbit number at epoch: 22302

The dashed part of the orbit path shows where the satellite is in the earth's shadow,  

DLR